[ hide orbit diagram ]
For accurate long-term ephemerides, please instead use our Horizons system.This orbit viewer was implemented using two-body methods, and hence should not be used for determining accurate long-term trajectories (over several years or decades) or planetary encounter circumstances.
Orbital Elements at Epoch 2459000.5 (2020-May-31.0) TDB
Reference: JPL 18 (heliocentric ecliptic J2000)
Element | Value | Uncertainty (1-sigma) | Units |
e | .1558056436315174 | 5.222e-08 | |
a | 2.470092122573402 | 1.5212e-08 | au |
q | 2.085237829586712 | 1.2198e-07 | au |
i | 3.176903701511285 | 4.3119e-06 | deg |
node | 107.8452676810787 | 0.00013577 | deg |
peri | 6.024348637557678 | 0.00014018 | deg |
M | 74.25381352593371 | 3.5939e-05 | deg |
tp | 2458708.027919050143 (2019-Aug-12.52791905) | 0.00013979 | TDB |
period | 1417.973625087621 3.88 | 1.3099e-05 3.586e-08 | d yr |
n | .2538834246495624 | 2.3452e-09 | deg/d |
Q | 2.854946415560092 | 1.7582e-08 | au |
|
| | Orbit Determination Parameters
Additional Information
|
[ show covariance matrix ]
Physical Parameter Table
Parameter |
Symbol |
Value |
Units |
Sigma |
Reference |
Notes |
absolute magnitude |
H |
16.6 |
|
n/a |
MPO454265 |
|
|
183713 (2003 YD64) Discovered 2003-Dec-19 by LINEAR at Socorro |
Reference: 20080420/Numbers.arc | Last Updated: 2008-04-23 |
|
[ show close-approach data ]
Alternate Designations
2003 YD64 = 2000 AQ246 = 2008 AY131 |
|
|